TimeEDT,TemperatureF,Dew PointF,Humidity,Sea Level PressureIn,VisibilityMPH,Wind Direction,Wind SpeedMPH,Gust SpeedMPH,PrecipitationIn,Events,Conditions,WindDirDegrees,DateUTC
12:53 AM,59.0,57.0,93,30.22,6.0,Calm,Calm,-,N/A,,Clear,0,2012-10-04 04:53:00
1:53 AM,57.9,57.0,97,30.21,6.0,Calm,Calm,-,N/A,,Clear,0,2012-10-04 05:53:00
2:53 AM,57.9,57.0,97,30.21,6.0,Calm,Calm,-,N/A,,Clear,0,2012-10-04 06:53:00
3:53 AM,57.0,55.9,96,30.21,6.0,Calm,Calm,-,N/A,,Clear,0,2012-10-04 07:53:00
4:53 AM,57.9,55.9,93,30.23,6.0,Calm,Calm,-,N/A,,Clear,0,2012-10-04 08:53:00
5:53 AM,55.9,54.0,93,30.25,5.0,Calm,Calm,-,N/A,,Clear,0,2012-10-04 09:53:00
6:53 AM,55.0,53.1,93,30.26,5.0,Calm,Calm,-,N/A,,Clear,0,2012-10-04 10:53:00
7:45 AM,53.6,51.8,94,30.27,4.0,Calm,Calm,-,N/A,,Scattered Clouds,0,2012-10-04 11:45:00
7:53 AM,54.0,52.0,93,30.27,4.0,Calm,Calm,-,N/A,,Partly Cloudy,0,2012-10-04 11:53:00
8:53 AM,57.0,55.9,96,30.29,5.0,Calm,Calm,-,N/A,,Clear,0,2012-10-04 12:53:00
9:53 AM,64.9,60.1,84,30.30,9.0,Calm,Calm,-,N/A,,Clear,0,2012-10-04 13:53:00
10:53 AM,71.1,61.0,70,30.30,10.0,Calm,Calm,-,0.01,,Clear,0,2012-10-04 14:53:00
11:53 AM,73.9,60.1,62,30.29,10.0,NW,3.5,-,N/A,,Clear,320,2012-10-04 15:53:00
12:53 PM,75.9,55.9,50,30.27,10.0,Variable,3.5,-,N/A,,Clear,0,2012-10-04 16:53:00
1:53 PM,78.1,54.0,43,30.25,10.0,NNW,3.5,-,N/A,,Clear,330,2012-10-04 17:53:00
2:53 PM,80.1,53.1,39,30.23,10.0,WNW,5.8,-,N/A,,Clear,300,2012-10-04 18:53:00
3:53 PM,80.1,53.1,39,30.22,10.0,WNW,3.5,-,N/A,,Clear,300,2012-10-04 19:53:00
4:53 PM,81.0,54.0,39,30.20,10.0,NNW,5.8,-,N/A,,Clear,340,2012-10-04 20:53:00
5:53 PM,81.0,53.1,38,30.20,10.0,North,4.6,-,N/A,,Clear,360,2012-10-04 21:53:00
6:53 PM,71.1,63.0,75,30.20,10.0,Calm,Calm,-,N/A,,Clear,0,2012-10-04 22:53:00
7:53 PM,64.9,62.1,90,30.21,9.0,Calm,Calm,-,N/A,,Clear,0,2012-10-04 23:53:00
9:53 PM,60.1,57.9,93,30.24,6.0,Calm,Calm,-,N/A,,Clear,0,2012-10-05 01:53:00
10:53 PM,59.0,57.0,93,30.25,5.0,Calm,Calm,-,N/A,,Clear,0,2012-10-05 02:53:00
11:53 PM,57.9,55.9,93,30.24,6.0,Calm,Calm,-,N/A,,Clear,0,2012-10-05 03:53:00